| time (UTC) | temp C | wind direction | speed KPH | gust KPH | rain 1hr cm | rain 24hr cm | rain mn cm | humidity % | barometer mb |
| 20260504194658 | 22 | 170 | 11.3 | 24.1 | 0.00 | 0.00 | 0.00 | 34 | 1011.2 |
| 20260504194154 | 23 | 132 | 4.8 | 35.4 | 0.00 | 0.00 | 0.00 | 34 | 1011.4 |
| 20260504193651 | 23 | 295 | 3.2 | 20.9 | 0.00 | 0.00 | 0.00 | 34 | 1011.5 |
| 20260504193149 | 23 | 207 | 4.8 | 22.5 | 0.00 | 0.00 | 0.00 | 34 | 1011.3 |
| 20260504192646 | 23 | 288 | 6.4 | 17.7 | 0.00 | 0.00 | 0.00 | 34 | 1011.5 |
| 20260504192144 | 23 | 218 | 8.0 | 16.1 | 0.00 | 0.00 | 0.00 | 35 | 1011.5 |
| 20260504191642 | 23 | 222 | 6.4 | 19.3 | 0.00 | 0.00 | 0.00 | 34 | 1011.5 |
| 20260504191138 | 23 | 272 | 4.8 | 17.7 | 0.00 | 0.00 | 0.00 | 34 | 1011.7 |
| 20260504190634 | 23 | 245 | 9.7 | 16.1 | 0.00 | 0.00 | 0.00 | 33 | 1011.7 |
| 20260504190131 | 23 | 273 | 8.0 | 19.3 | 0.00 | 0.00 | 0.00 | 34 | 1011.7 |
| 20260504185627 | 23 | 252 | 9.7 | 22.5 | 0.00 | 0.00 | 0.00 | 33 | 1011.7 |
| 20260504185124 | 22 | 100 | 0.0 | 20.9 | 0.00 | 0.00 | 0.00 | 34 | 1011.9 |
| 20260504184620 | 22 | 300 | 8.0 | 27.4 | 0.00 | 0.00 | 0.00 | 34 | 1012.0 |
| 20260504184115 | 22 | 278 | 17.7 | 29.0 | 0.00 | 0.00 | 0.00 | 34 | 1012.2 |
| 20260504183613 | 22 | 283 | 9.7 | 25.7 | 0.00 | 0.00 | 0.00 | 34 | 1012.3 |
| 20260504183111 | 22 | 287 | 6.4 | 25.7 | 0.00 | 0.00 | 0.00 | 34 | 1012.2 |
| 20260504182608 | 22 | 258 | 4.8 | 25.7 | 0.00 | 0.00 | 0.00 | 34 | 1012.1 |
| 20260504182105 | 22 | 310 | 14.5 | 27.4 | 0.00 | 0.00 | 0.00 | 34 | 1012.2 |
| 20260504181602 | 22 | 277 | 11.3 | 17.7 | 0.00 | 0.00 | 0.00 | 34 | 1012.2 |
| 20260504181100 | 21 | 309 | 11.3 | 22.5 | 0.00 | 0.00 | 0.00 | 35 | 1012.4 |
| 20260504180558 | 22 | 282 | 11.3 | 27.4 | 0.00 | 0.00 | 0.00 | 35 | 1012.5 |
| 20260504180057 | 22 | 288 | 19.3 | 27.4 | 0.00 | 0.00 | 0.00 | 35 | 1012.5 |
| 20260504175554 | 21 | 294 | 9.7 | 33.8 | 0.00 | 0.00 | 0.00 | 37 | 1012.7 |
| 20260504175051 | 21 | 296 | 11.3 | 19.3 | 0.00 | 0.00 | 0.00 | 38 | 1012.7 |
| 20260504174549 | 21 | 241 | 17.7 | 24.1 | 0.00 | 0.00 | 0.00 | 38 | 1012.8 |
| 20260504174045 | 21 | 225 | 4.8 | 24.1 | 0.00 | 0.00 | 0.00 | 37 | 1012.8 |
| 20260504173542 | 22 | 178 | 8.0 | 27.4 | 0.00 | 0.00 | 0.00 | 37 | 1012.7 |
| 20260504173040 | 22 | 276 | 8.0 | 16.1 | 0.00 | 0.00 | 0.00 | 36 | 1012.6 |
| 20260504172536 | 21 | 307 | 12.9 | 32.2 | 0.00 | 0.00 | 0.00 | 36 | 1012.7 |
| 20260504172032 | 20 | 306 | 19.3 | 29.0 | 0.00 | 0.00 | 0.00 | 37 | 1012.8 |
| 20260504171529 | 21 | 262 | 12.9 | 27.4 | 0.00 | 0.00 | 0.00 | 36 | 1012.8 |
| 20260504171026 | 21 | 278 | 8.0 | 27.4 | 0.00 | 0.00 | 0.00 | 37 | 1013.1 |
| 20260504170522 | 20 | 338 | 1.6 | 24.1 | 0.00 | 0.00 | 0.00 | 37 | 1013.2 |
| 20260504160443 | 20 | 289 | 4.8 | 32.2 | 0.00 | 0.00 | 0.00 | 36 | 1013.8 |
| 20260504150906 | 19 | 258 | 8.0 | 14.5 | 0.00 | 0.00 | 0.00 | 39 | 1014.6 |
| 20260504150403 | 18 | 46 | 3.2 | 25.7 | 0.00 | 0.00 | 0.00 | 40 | 1014.6 |
| 20260504141333 | 18 | 265 | 8.0 | 19.3 | 0.00 | 0.00 | 0.00 | 45 | 1014.8 |
| 20260504140829 | 18 | 277 | 8.0 | 14.5 | 0.00 | 0.00 | 0.00 | 46 | 1014.7 |
| 20260504140325 | 17 | 277 | 19.3 | 22.5 | 0.00 | 0.00 | 0.00 | 46 | 1014.8 |
| 20260504130754 | 15 | 284 | 8.0 | 20.9 | 0.00 | 0.00 | 0.00 | 51 | 1015.2 |
| 20260504130250 | 15 | 297 | 29.0 | 29.0 | 0.00 | 0.00 | 0.00 | 51 | 1015.4 |
| 20260504120214 | 13 | 267 | 11.3 | 20.9 | 0.00 | 0.00 | 0.00 | 59 | 1015.8 |
| 20260504110641 | 10 | 287 | 8.0 | 22.5 | 0.00 | 0.00 | 0.00 | 62 | 1015.9 |
| 20260504110137 | 10 | 254 | 14.5 | 14.5 | 0.00 | 0.00 | 0.00 | 63 | 1015.9 |
| 20260504100603 | 10 | 304 | 4.8 | 9.7 | 0.00 | 0.00 | 0.00 | 56 | 1015.4 |
| 20260504081957 | 10 | 291 | 3.2 | 14.5 | 0.00 | 0.00 | 0.00 | 58 | 1015.1 |
| 20260504081454 | 10 | 265 | 8.0 | 8.0 | 0.00 | 0.00 | 0.00 | 58 | 1015.0 |
| 20260504080949 | 10 | 340 | 1.6 | 14.5 | 0.00 | 0.00 | 0.00 | 57 | 1015.1 |
| 20260504080446 | 10 | 294 | 6.4 | 8.0 | 0.00 | 0.00 | 0.00 | 57 | 1015.2 |
| 20260504050259 | 11 | 255 | 6.4 | 16.1 | 0.00 | 0.00 | 0.00 | 48 | 1014.6 |
| 20260504045756 | 12 | 281 | 3.2 | 16.1 | 0.00 | 0.00 | 0.00 | 48 | 1014.3 |
| 20260504045251 | 12 | 294 | 11.3 | 16.1 | 0.00 | 0.00 | 0.00 | 47 | 1014.5 |
| 20260504044749 | 12 | 290 | 12.9 | 20.9 | 0.00 | 0.00 | 0.00 | 46 | 1014.5 |
| 20260504044246 | 12 | 259 | 4.8 | 19.3 | 0.00 | 0.00 | 0.00 | 47 | 1014.4 |
| 20260504043743 | 12 | 332 | 4.8 | 11.3 | 0.00 | 0.00 | 0.00 | 47 | 1014.4 |
| 20260504043240 | 12 | 269 | 0.0 | 20.9 | 0.00 | 0.00 | 0.00 | 47 | 1014.4 |
| 20260504042738 | 12 | 5 | 1.6 | 17.7 | 0.00 | 0.00 | 0.00 | 47 | 1014.2 |
| 20260504042234 | 12 | 293 | 0.0 | 11.3 | 0.00 | 0.00 | 0.00 | 47 | 1014.4 |
| 20260504041730 | 12 | 300 | 11.3 | 27.4 | 0.00 | 0.00 | 0.00 | 46 | 1014.3 |
| 20260504041226 | 12 | 248 | 6.4 | 16.1 | 0.00 | 0.00 | 0.00 | 46 | 1014.4 |
| 20260504040722 | 12 | 276 | 11.3 | 17.7 | 0.00 | 0.00 | 0.00 | 45 | 1014.2 |
| 20260504040220 | 12 | 276 | 4.8 | 17.7 | 0.00 | 0.00 | 0.00 | 46 | 1014.2 |
| 20260504035716 | 12 | 242 | 4.8 | 12.9 | 0.00 | 0.00 | 0.00 | 45 | 1014.1 |
| 20260504035213 | 12 | 251 | 6.4 | 16.1 | 0.00 | 0.00 | 0.00 | 45 | 1014.1 |
| 20260504034711 | 12 | 266 | 0.0 | 8.0 | 0.00 | 0.00 | 0.00 | 45 | 1014.1 |
| 20260504034208 | 12 | 293 | 3.2 | 12.9 | 0.00 | 0.00 | 0.00 | 45 | 1014.1 |
| 20260504033705 | 12 | 291 | 4.8 | 22.5 | 0.00 | 0.00 | 0.00 | 44 | 1014.2 |
| 20260504033202 | 12 | 255 | 9.7 | 16.1 | 0.00 | 0.00 | 0.00 | 44 | 1014.2 |
| 20260504032659 | 12 | 227 | 3.2 | 11.3 | 0.00 | 0.00 | 0.00 | 44 | 1014.0 |
| 20260504032156 | 12 | 281 | 11.3 | 22.5 | 0.00 | 0.00 | 0.00 | 43 | 1014.0 |
| 20260504031653 | 12 | 273 | 3.2 | 19.3 | 0.00 | 0.00 | 0.00 | 43 | 1013.9 |
| 20260504031149 | 12 | 332 | 4.8 | 17.7 | 0.00 | 0.00 | 0.00 | 43 | 1014.0 |
| 20260504030646 | 12 | 323 | 6.4 | 14.5 | 0.00 | 0.00 | 0.00 | 43 | 1014.0 |
| 20260504030143 | 12 | 323 | 4.8 | 9.7 | 0.00 | 0.00 | 0.00 | 43 | 1014.0 |
| 20260504025640 | 13 | 168 | 1.6 | 14.5 | 0.00 | 0.00 | 0.00 | 42 | 1013.9 |
| 20260504025137 | 13 | 264 | 9.7 | 25.7 | 0.00 | 0.00 | 0.00 | 41 | 1013.8 |
| 20260504024634 | 13 | 38 | 3.2 | 12.9 | 0.00 | 0.00 | 0.00 | 41 | 1013.9 |
| 20260504024130 | 13 | 271 | 6.4 | 19.3 | 0.00 | 0.00 | 0.00 | 41 | 1014.1 |
| 20260504023627 | 13 | 289 | 6.4 | 17.7 | 0.00 | 0.00 | 0.00 | 41 | 1014.2 |
| 20260504023123 | 13 | 248 | 6.4 | 12.9 | 0.00 | 0.00 | 0.00 | 41 | 1013.9 |
| 20260504022620 | 13 | 292 | 4.8 | 14.5 | 0.00 | 0.00 | 0.00 | 41 | 1014.0 |
| 20260504022116 | 13 | 293 | 3.2 | 9.7 | 0.00 | 0.00 | 0.00 | 41 | 1014.1 |
| 20260504021614 | 13 | 147 | 3.2 | 9.7 | 0.00 | 0.00 | 0.00 | 41 | 1014.0 |
| 20260504021110 | 13 | 269 | 0.0 | 11.3 | 0.00 | 0.00 | 0.00 | 41 | 1014.2 |
| 20260504020607 | 13 | 251 | 4.8 | 11.3 | 0.00 | 0.00 | 0.00 | 41 | 1014.0 |
| 20260504020103 | 13 | 269 | 0.0 | 8.0 | 0.00 | 0.00 | 0.00 | 40 | 1013.9 |
| 20260504015600 | 13 | 269 | 6.4 | 14.5 | 0.00 | 0.00 | 0.00 | 39 | 1013.9 |
| 20260504015056 | 13 | 266 | 3.2 | 11.3 | 0.00 | 0.00 | 0.00 | 40 | 1014.0 |
| 20260504014552 | 13 | 334 | 0.0 | 4.8 | 0.00 | 0.00 | 0.00 | 40 | 1013.7 |
| 20260504014050 | 13 | 271 | 3.2 | 12.9 | 0.00 | 0.00 | 0.00 | 40 | 1013.8 |
| 20260504013547 | 13 | 285 | 1.6 | 8.0 | 0.00 | 0.00 | 0.00 | 40 | 1013.9 |
| 20260504013044 | 13 | 279 | 6.4 | 11.3 | 0.00 | 0.00 | 0.00 | 40 | 1013.5 |
| 20260504012541 | 13 | 315 | 9.7 | 16.1 | 0.00 | 0.00 | 0.00 | 39 | 1013.4 |
| 20260504012039 | 13 | 276 | 6.4 | 14.5 | 0.00 | 0.00 | 0.00 | 38 | 1013.6 |
| 20260504011536 | 13 | 331 | 3.2 | 6.4 | 0.00 | 0.00 | 0.00 | 37 | 1013.8 |
| 20260504011032 | 13 | 260 | 3.2 | 17.7 | 0.00 | 0.00 | 0.00 | 36 | 1013.6 |
| 20260504010527 | 13 | 322 | 3.2 | 8.0 | 0.00 | 0.00 | 0.00 | 37 | 1013.4 |
| 20260504010024 | 13 | 242 | 4.8 | 14.5 | 0.00 | 0.00 | 0.00 | 36 | 1013.4 |
| 20260504005520 | 13 | 331 | 6.4 | 12.9 | 0.00 | 0.00 | 0.00 | 37 | 1013.3 |
| 20260504005018 | 13 | 273 | 0.0 | 11.3 | 0.00 | 0.00 | 0.00 | 38 | 1013.3 |
| 20260504004516 | 13 | 342 | 0.0 | 6.4 | 0.00 | 0.00 | 0.00 | 40 | 1013.3 |
| 20260504004013 | 13 | 279 | 0.0 | 6.4 | 0.00 | 0.00 | 0.00 | 41 | 1013.3 |
| 20260504003509 | 14 | 280 | 3.2 | 11.3 | 0.00 | 0.00 | 0.00 | 40 | 1013.2 |
| 20260504003006 | 14 | 274 | 3.2 | 14.5 | 0.00 | 0.00 | 0.00 | 39 | 1013.0 |
| 20260504002503 | 14 | 307 | 6.4 | 17.7 | 0.00 | 0.00 | 0.00 | 36 | 1012.9 |
| 20260504002000 | 14 | 314 | 4.8 | 14.5 | 0.00 | 0.00 | 0.00 | 37 | 1012.9 |
| 20260504001457 | 15 | 311 | 16.1 | 17.7 | 0.00 | 0.00 | 0.00 | 36 | 1012.7 |
| 20260504000953 | 15 | 324 | 8.0 | 24.1 | 0.00 | 0.00 | 0.00 | 37 | 1012.7 |
| 20260504000451 | 15 | 275 | 11.3 | 14.5 | 0.00 | 0.00 | 0.00 | 38 | 1012.7 |
| 20260503235948 | 15 | 283 | 1.6 | 14.5 | 0.00 | 0.00 | 0.00 | 37 | 1012.4 |
| 20260503235446 | 15 | 281 | 6.4 | 9.7 | 0.00 | 0.00 | 0.00 | 34 | 1012.6 |
| 20260503234943 | 15 | 311 | 4.8 | 8.0 | 0.00 | 0.00 | 0.00 | 35 | 1012.6 |
| 20260503234440 | 15 | 293 | 6.4 | 11.3 | 0.00 | 0.00 | 0.00 | 34 | 1012.5 |
| 20260503233938 | 15 | 296 | 3.2 | 11.3 | 0.00 | 0.00 | 0.00 | 33 | 1012.2 |
| 20260503233434 | 15 | 308 | 9.7 | 12.9 | 0.00 | 0.00 | 0.00 | 33 | 1012.4 |
| 20260503232931 | 16 | 302 | 4.8 | 14.5 | 0.00 | 0.00 | 0.00 | 32 | 1012.2 |
| 20260503232428 | 16 | 287 | 16.1 | 19.3 | 0.00 | 0.00 | 0.00 | 31 | 1012.2 |
| 20260503231926 | 16 | 316 | 8.0 | 17.7 | 0.00 | 0.00 | 0.00 | 31 | 1012.3 |
| 20260503231423 | 16 | 299 | 12.9 | 25.7 | 0.00 | 0.00 | 0.00 | 30 | 1012.3 |
| 20260503230919 | 16 | 333 | 9.7 | 17.7 | 0.00 | 0.00 | 0.00 | 30 | 1012.0 |
| 20260503230416 | 16 | 325 | 3.2 | 27.4 | 0.00 | 0.00 | 0.00 | 29 | 1012.1 |
| 20260503225914 | 16 | 343 | 4.8 | 24.1 | 0.00 | 0.00 | 0.00 | 29 | 1012.1 |
| 20260503225410 | 16 | 330 | 4.8 | 20.9 | 0.00 | 0.00 | 0.00 | 29 | 1011.9 |
| 20260503224906 | 16 | 301 | 8.0 | 24.1 | 0.00 | 0.00 | 0.00 | 29 | 1012.0 |
| 20260503224403 | 16 | 350 | 3.2 | 19.3 | 0.00 | 0.00 | 0.00 | 29 | 1012.1 |
| 20260503223901 | 16 | 305 | 9.7 | 19.3 | 0.00 | 0.00 | 0.00 | 28 | 1012.0 |
| 20260503223359 | 16 | 297 | 22.5 | 35.4 | 0.00 | 0.00 | 0.00 | 28 | 1012.1 |
| 20260503222854 | 16 | 324 | 16.1 | 32.2 | 0.00 | 0.00 | 0.00 | 28 | 1011.9 |
| 20260503222353 | 16 | 341 | 11.3 | 43.5 | 0.00 | 0.00 | 0.00 | 28 | 1011.7 |
| 20260503221850 | 16 | 289 | 12.9 | 32.2 | 0.00 | 0.00 | 0.00 | 28 | 1011.7 |
| 20260503221349 | 16 | 316 | 8.0 | 20.9 | 0.00 | 0.00 | 0.00 | 28 | 1011.8 |
| 20260503220844 | 16 | 88 | 1.6 | 20.9 | 0.00 | 0.00 | 0.00 | 28 | 1011.7 |
| 20260503220341 | 16 | 276 | 11.3 | 33.8 | 0.00 | 0.00 | 0.00 | 27 | 1012.0 |
| 20260503215838 | 16 | 316 | 24.1 | 32.2 | 0.00 | 0.00 | 0.00 | 27 | 1012.1 |
| 20260503215335 | 16 | 286 | 12.9 | 30.6 | 0.00 | 0.00 | 0.00 | 27 | 1012.1 |
| 20260503214833 | 16 | 304 | 12.9 | 24.1 | 0.00 | 0.00 | 0.00 | 28 | 1011.9 |
| 20260503214330 | 15 | 303 | 20.9 | 56.3 | 0.00 | 0.00 | 0.00 | 28 | 1011.9 |
| 20260503213827 | 16 | 307 | 27.4 | 37.0 | 0.00 | 0.00 | 0.00 | 28 | 1012.0 |
| 20260503213325 | 16 | 310 | 24.1 | 27.4 | 0.00 | 0.00 | 0.00 | 27 | 1012.0 |
| 20260503212822 | 16 | 301 | 6.4 | 41.8 | 0.00 | 0.00 | 0.00 | 29 | 1011.9 |
| 20260503212320 | 16 | 303 | 11.3 | 30.6 | 0.00 | 0.00 | 0.00 | 29 | 1011.9 |
| 20260503211817 | 16 | 317 | 16.1 | 41.8 | 0.00 | 0.00 | 0.00 | 28 | 1011.9 |
| 20260503211313 | 16 | 284 | 19.3 | 27.4 | 0.00 | 0.00 | 0.00 | 29 | 1011.9 |
| 20260503210813 | 16 | 291 | 4.8 | 24.1 | 0.00 | 0.00 | 0.00 | 30 | 1011.9 |
| 20260503210311 | 16 | 313 | 14.5 | 33.8 | 0.00 | 0.00 | 0.00 | 30 | 1011.6 |
| 20260503205806 | 16 | 304 | 11.3 | 29.0 | 0.00 | 0.00 | 0.00 | 29 | 1011.7 |
| 20260503205304 | 16 | 307 | 8.0 | 30.6 | 0.00 | 0.00 | 0.00 | 29 | 1011.8 |
| 20260503204759 | 16 | 305 | 38.6 | 41.8 | 0.00 | 0.00 | 0.00 | 29 | 1011.9 |
| 20260503204257 | 16 | 280 | 8.0 | 29.0 | 0.00 | 0.00 | 0.00 | 30 | 1011.7 |
| 20260503203754 | 15 | 326 | 14.5 | 32.2 | 0.00 | 0.00 | 0.00 | 30 | 1011.6 |
| 20260503203251 | 16 | 318 | 12.9 | 30.6 | 0.00 | 0.00 | 0.00 | 29 | 1011.8 |
| 20260503202748 | 16 | 310 | 24.1 | 37.0 | 0.00 | 0.00 | 0.00 | 30 | 1011.9 |
| 20260503202246 | 15 | 300 | 17.7 | 33.8 | 0.00 | 0.00 | 0.00 | 30 | 1011.9 |
| 20260503201744 | 16 | 291 | 6.4 | 24.1 | 0.00 | 0.00 | 0.00 | 30 | 1012.0 |
| 20260503201241 | 15 | 277 | 24.1 | 41.8 | 0.00 | 0.00 | 0.00 | 30 | 1012.0 |
| 20260503200738 | 15 | 322 | 11.3 | 35.4 | 0.00 | 0.00 | 0.00 | 30 | 1012.2 |
| 20260503200234 | 15 | 26 | 8.0 | 40.2 | 0.00 | 0.00 | 0.00 | 30 | 1012.1 |
| 20260503195731 | 15 | 312 | 22.5 | 37.0 | 0.00 | 0.00 | 0.00 | 31 | 1012.1 |
| 20260503195228 | 15 | 295 | 24.1 | 38.6 | 0.00 | 0.00 | 0.00 | 31 | 1012.2 |